Find Starlink 37270

NORAD ID: 68727 Int'l Des: 2026-081 Owner: SPXS Country: US Constellation: starlink operational
LEOCIRCULAR

Current View

Loading 3D Globe...

About Starlink 37270

Description loading...

Upcoming Passes

Passes for default location (London). Set your location on the main map for personalized predictions.

Altitude History

Loading altitude history...

Two-Line Element Set

1 68727U 26081AE 26150.85939448 .00086381 00000-0 15426-2 0 9997
2 68727 53.1595 12.4115 0000967 98.2941 261.8178 15.49335429 7329
Epoch: May 30, 2026 • Age: 8 hours

Current Status

Altitude 419.7 km
Velocity 7.66 km/s
Sub-Earth Point 30.03°N, 158.08°W
Launch Date Apr 14, 2026
Age 0.1 years
Type internet

Technical Details

Classification Payload
Mass 575.00 kg
Dry Mass 530.00 kg
Total Mass 575.00 kg
Length 0.30 m
Diameter 4.10 m
Span 29.00 m
Shape Box + pan
Manufacturer SPXS
Bus Type Starlink V2MO
Phase Status In Orbit
Owner/State SPXS/US

Most Searched